Overview Statistics Trail Chart Weather Telemetry Raw packets
 

This is the latest recevied weather packets stored in our database for station/object KG7FOQ-13. If no packets are shown the sender has not sent any weather packets the latest 10 day(s).

<< 110 111 112 113 114 115 >>
Time Temp. Humidity Pressure Rain* Wind** Luminosity Snow
1787776018 29.44° C 43% 1018.6 hPa 0 mm - - -
1787775775 29.44° C 35% 1018.6 hPa 0 mm - - -
1787775718 29.44° C 35% 1018.6 hPa 0 mm - - -
1787775416 28.89° C 36% 1018.6 hPa 0 mm - - -
1787775117 29.44° C 39% 1018.7 hPa 0 mm - - -
1787774816 28.89° C 38% 1018.8 hPa 0 mm - - -
1787774515 28.33° C 34% 1018.8 hPa 0 mm - - -
1787774260 28.33° C 31% 1018.8 hPa 0 mm - - -
1787774214 28.33° C 31% 1018.8 hPa 0 mm - - -
1787773914 28.89° C 34% 1018.9 hPa 0 mm - - -
1787773614 28.33° C 32% 1019.3 hPa 0 mm - - -
1787773312 28.33° C 32% 1019.2 hPa 0 mm - - -
1787773012 28.89° C 35% 1019.3 hPa 0 mm - - -
1787772411 28.33° C 42% 1019.4 hPa 0 mm - - -
1787772187 28.33° C 42% 1019.5 hPa 0 mm - - -
1787772111 28.33° C 42% 1019.5 hPa 0 mm - - -
1787771853 27.78° C 47% 1019.5 hPa 0 mm - - -
1787771810 27.78° C 47% 1019.5 hPa 0 mm - - -
1787771509 27.78° C 42% 1019.5 hPa 0 mm - - -
1787771209 28.33° C 40% 1019.6 hPa 0 mm - - -
1787770908 28.33° C 34% 1019.6 hPa 0 mm - - -
1787770608 27.78° C 37% 1019.7 hPa 0 mm - - -
1787770354 27.78° C 36% 1019.7 hPa 0 mm - - -
1787770307 27.78° C 36% 1019.7 hPa 0 mm - - -
1787770007 27.78° C 36% 1020 hPa 0 mm - - -

* Rain latest hour (hover to see other rain measurements)
** Current wind speed in m/s (hover to see current wind gust speed)